TimeCST,TemperatureF,Dew PointF,Humidity,Sea Level PressureIn,VisibilityMPH,Wind Direction,Wind SpeedMPH,Gust SpeedMPH,PrecipitationIn,Events,Conditions,WindDirDegrees,DateUTC
12:17 AM,39.2,37.4,93,30.28,5.0,Calm,Calm,-,N/A,,Overcast,0,2013-01-06 06:17:00
12:53 AM,39.0,37.9,96,30.29,5.0,Calm,Calm,-,N/A,,Overcast,0,2013-01-06 06:53:00
1:41 AM,39.2,37.4,93,30.28,2.5,Calm,Calm,-,N/A,,Overcast,0,2013-01-06 07:41:00
1:53 AM,39.9,37.9,93,30.28,2.5,Calm,Calm,-,N/A,,Overcast,0,2013-01-06 07:53:00
2:00 AM,-9999,-9999,N/A,-9999,-9999.0,North,-9999.0,-,N/A,,Unknown,0,2013-01-06 08:00:00
2:09 AM,39.2,37.4,93,30.27,3.0,Calm,Calm,-,N/A,,Overcast,0,2013-01-06 08:09:00
2:44 AM,39.2,37.4,93,30.27,6.0,Calm,Calm,-,N/A,,Overcast,0,2013-01-06 08:44:00
2:53 AM,39.9,37.9,93,30.27,5.0,Calm,Calm,-,N/A,,Overcast,0,2013-01-06 08:53:00
3:53 AM,39.0,37.9,96,30.27,5.0,WSW,5.8,-,N/A,,Overcast,250,2013-01-06 09:53:00
4:18 AM,39.2,37.4,93,30.26,2.5,WNW,4.6,-,N/A,,Overcast,290,2013-01-06 10:18:00
4:30 AM,39.2,37.4,93,30.26,4.0,WNW,3.5,-,N/A,,Overcast,290,2013-01-06 10:30:00
4:53 AM,39.9,37.9,93,30.27,8.0,Calm,Calm,-,N/A,,Overcast,0,2013-01-06 10:53:00
5:53 AM,39.0,37.0,93,30.28,10.0,WNW,4.6,-,N/A,,Overcast,300,2013-01-06 11:53:00
6:53 AM,39.0,37.0,93,30.29,10.0,West,3.5,-,N/A,,Overcast,280,2013-01-06 12:53:00
7:53 AM,39.0,37.0,93,30.30,10.0,Calm,Calm,-,N/A,,Overcast,0,2013-01-06 13:53:00
8:53 AM,39.0,37.0,93,30.31,10.0,WNW,3.5,-,N/A,,Overcast,290,2013-01-06 14:53:00
9:35 AM,41.0,37.4,87,30.31,10.0,Variable,5.8,-,N/A,,Overcast,0,2013-01-06 15:35:00
9:53 AM,41.0,37.9,89,30.32,10.0,NW,3.5,-,N/A,,Overcast,320,2013-01-06 15:53:00
10:53 AM,44.1,37.9,79,30.31,10.0,WSW,5.8,-,N/A,,Overcast,250,2013-01-06 16:53:00
11:53 AM,46.9,39.0,74,30.28,10.0,Variable,4.6,-,N/A,,Overcast,0,2013-01-06 17:53:00
12:18 PM,48.2,39.2,71,30.28,10.0,West,3.5,-,N/A,,Mostly Cloudy,270,2013-01-06 18:18:00
12:36 PM,48.2,37.4,66,30.27,10.0,Variable,4.6,-,N/A,,Scattered Clouds,0,2013-01-06 18:36:00
12:53 PM,50.0,39.0,66,30.27,10.0,Variable,4.6,-,N/A,,Partly Cloudy,0,2013-01-06 18:53:00
1:53 PM,50.0,36.0,59,30.25,10.0,Variable,3.5,-,N/A,,Clear,0,2013-01-06 19:53:00
2:53 PM,52.0,35.1,53,30.25,10.0,WNW,6.9,-,N/A,,Clear,300,2013-01-06 20:53:00
3:53 PM,53.1,34.0,48,30.26,10.0,NW,5.8,-,N/A,,Clear,320,2013-01-06 21:53:00
4:53 PM,48.9,34.0,56,30.27,10.0,North,4.6,-,N/A,,Clear,360,2013-01-06 22:53:00
5:53 PM,46.9,34.0,61,30.29,10.0,NNW,3.5,-,N/A,,Clear,330,2013-01-06 23:53:00
6:53 PM,44.1,33.1,65,30.31,10.0,North,5.8,-,N/A,,Clear,360,2013-01-07 00:53:00
7:53 PM,42.1,32.0,67,30.35,10.0,North,8.1,-,N/A,,Clear,10,2013-01-07 01:53:00
8:53 PM,39.9,32.0,73,30.35,10.0,NNE,11.5,-,N/A,,Clear,20,2013-01-07 02:53:00
9:53 PM,37.0,30.0,76,30.36,10.0,NE,13.8,-,N/A,,Clear,40,2013-01-07 03:53:00
10:53 PM,35.1,28.9,78,30.37,10.0,NE,10.4,-,N/A,,Clear,40,2013-01-07 04:53:00
11:53 PM,33.1,28.0,82,30.38,10.0,NE,8.1,-,N/A,,Clear,40,2013-01-07 05:53:00